Home   Weather   Wertheim   Past weeks

Flag for Germany Past Weather in Wertheim, Baden-Württemberg, Germany — Yesterday and Last 2 Weeks

Now
66 °F

Partly cloudy.


Feels Like: 66 °F
Forecast: 56 / 66 °F
Wind: 17 mph from Southwest

Location: Niederstetten

Current Time: Jul 23, 2017 at 5:00:18 am

Latest Report: Jul 23, 2017 at 4:20 am


Visibility: N/A

Pressure: 29.98 "Hg

Humidity: 73%

Dew Point: 57 °F

Location of WertheimLocation

Past Weather in Wertheim — Graph

°F

Wertheim Temperature Yesterday

Maximum temperature yesterday: 79 °F (at 4:20 pm)
Minimum temperature yesterday: 59 °F (at 6:20 am)
Average temperature yesterday: 69 °F

High & Low Weather Summary for the Past Weeks

 TemperatureHumidityPressure
High90 °F (Jul 19, 5:20 pm)100% (Jul 10, 5:20 am)30.30 "Hg (Jul 10, 5:20 am)
Low48 °F (Jul 13, 4:20 am)31% (Jul 19, 5:20 pm)29.83 "Hg (Jul 10, 2:20 am)
Average67 °F70%30.02 "Hg
* Reported Jul 8 2:20 am — Jul 23 2:20 am, Wertheim. Weather by CustomWeather, © 2017

Note: Actual official high and low records may vary slightly from our data, if they occured in-between our weather recording intervals... More about our weather records

Advertising

Wertheim Weather History for the Previous 24 Hours

Scroll right to see more
 ConditionsComfort  
Time TempWeatherWind HumidityBarometerVisibility
2:20 am
Sun, Jul 23
70 °FPassing clouds.10 mph60%29.95 "HgN/A
1:20 am68 °FPassing clouds.12 mph73%29.95 "HgN/A
12:20 am68 °FPassing clouds.7 mph73%29.95 "HgN/A
11:20 pm
Sat, Jul 22
68 °FPassing clouds.6 mph73%29.95 "HgN/A
10:20 pm68 °FPassing clouds.5 mph78%29.95 "HgN/A
9:20 pm72 °FPassing clouds.3 mph65%29.95 "HgN/A
8:20 pm75 °FScattered clouds.5 mph57%29.95 "HgN/A
7:20 pm77 °FPassing clouds.8 mph54%29.95 "HgN/A
6:20 pm79 °FScattered clouds.5 mph51%29.95 "HgN/A
5:20 pm75 °FScattered clouds.5 mph57%29.98 "HgN/A
4:20 pm79 °FBroken clouds.5 mph51%29.98 "HgN/A
3:20 pm73 °FPartly sunny.5 mph61%29.98 "HgN/A
2:20 pm77 °FBroken clouds.7 mph51%29.98 "HgN/A
1:20 pm73 °FScattered clouds.6 mph57%29.98 "HgN/A
12:20 pm73 °FScattered clouds.6 mph61%30.01 "HgN/A
11:20 am70 °FScattered clouds.7 mph73%29.98 "HgN/A
10:20 am68 °FScattered clouds.6 mph78%29.98 "HgN/A
9:20 am64 °FPartly sunny.8 mph88%29.98 "HgN/A
8:20 am63 °FPartly sunny.6 mph94%29.98 "HgN/A
7:20 am61 °FBroken clouds.7 mph94%29.95 "HgN/A
6:20 am59 °FBroken clouds.5 mph100%29.95 "HgN/A
5:20 am61 °FPartly cloudy.5 mph94%29.92 "HgN/A
Weather by CustomWeather, © 2017

See weather overviewHow to use our weather pages